Location: Pittsburgh
(40.4410°N, 79.9960°W)
Time: 23:44:52
(UTC-04:00)

BlueWalker 3 - Pass Details

Date: 20 March 2026
Orbit: 449 x 457 km, 53.2° (Epoch: 17 April)

Event Time Altitude Azimuth Distance (km) Brightness Sun altitude
Rises 21:20:23 0° 216° (SW) 2,449 5.7 -21.0°
Reaches altitude 10° 21:22:33 10° 211° (SSW) 1,582 4.6 -21.4°
Enters shadow 21:23:49 20° 203° (SSW) 1,099 3.7 -21.6°
